• In France
  • List of Countries
  • For 7 days
  • Water Temperature
  • Satellite Maps
  • Weather Map
  • Weather Widgets
  • user-avatar
    Login

    Hourly Weather Hamhŭng

    Today, 25 February, Sunday

    Time Temperature Precipitation Wind Pressure Humidity
    00:00 -4°C° 0.1 mm 2 mps 769 mmHg 84%
    01:00 -4°C° 0.1 mm 2 mps 769 mmHg 84%
    02:00 -4°C° 0.1 mm 2 mps 769 mmHg 84%
    03:00 -4°C° 0 mm 2 mps 768 mmHg 84%
    04:00 -5°C° 0.1 mm 2 mps 768 mmHg 84%
    05:00 -5°C° 0.1 mm 2 mps 768 mmHg 83%
    06:00 -5°C° 0.1 mm 2 mps 768 mmHg 83%
    07:00 -4°C° 0.1 mm 2 mps 768 mmHg 77%
    08:00 -3°C° 0.1 mm 2 mps 768 mmHg 71%
    09:00 -2°C° 0 mm 2 mps 767 mmHg 62%
    10:00 -1°C° 0 mm 2 mps 767 mmHg 56%
    11:00 +1°C° 0 mm 2 mps 766 mmHg 51%
    12:00 +3°C° 0 mm 2 mps 766 mmHg 45%
    13:00 +3°C° 0 mm 2 mps 765 mmHg 43%
    14:00 +4°C° 0 mm 2 mps 765 mmHg 41%
    15:00 +4°C° 0 mm 2 mps 764 mmHg 38%
    16:00 +3°C° 0 mm 2 mps 764 mmHg 45%
    17:00 +2°C° 0 mm 2 mps 764 mmHg 52%
    18:00 +2°C° 0 mm 1 mps 764 mmHg 59%
    19:00 +1°C° 0 mm 1 mps 765 mmHg 62%
    20:00 0°C° 0 mm 1 mps 765 mmHg 64%
    21:00 -1°C° 0 mm 1 mps 765 mmHg 66%
    22:00 -1°C° 0 mm 1 mps 766 mmHg 65%
    23:00 -1°C° 0 mm 1 mps 766 mmHg 63%

    Tomorrow, 26 February, Monday

    Time Temperature Precipitation Wind Pressure Humidity
    00:00 -1°C° 0 mm 1 mps 766 mmHg 61%
    01:00 -1°C° 0 mm 1 mps 766 mmHg 60%
    02:00 -2°C° 0 mm 1 mps 766 mmHg 58%
    03:00 -2°C° 0 mm 1 mps 766 mmHg 57%
    04:00 -2°C° 0 mm 1 mps 767 mmHg 55%
    05:00 -2°C° 0 mm 1 mps 767 mmHg 53%
    06:00 -2°C° 0 mm 1 mps 767 mmHg 51%
    07:00 -1°C° 0 mm 1 mps 767 mmHg 48%
    08:00 0°C° 0 mm 1 mps 767 mmHg 45%
    09:00 +1°C° 0 mm 1 mps 767 mmHg 42%
    10:00 +2°C° 0 mm 2 mps 767 mmHg 44%
    11:00 +3°C° 0 mm 2 mps 766 mmHg 46%
    12:00 +3°C° 0 mm 3 mps 766 mmHg 48%
    13:00 +3°C° 0 mm 3 mps 766 mmHg 53%
    14:00 +3°C° 0 mm 3 mps 765 mmHg 58%
    15:00 +2°C° 0 mm 3 mps 765 mmHg 63%
    16:00 +2°C° 0.1 mm 3 mps 765 mmHg 70%
    17:00 +1°C° 0.1 mm 3 mps 765 mmHg 77%
    18:00 0°C° 0.1 mm 3 mps 765 mmHg 84%
    19:00 +1°C° 0.2 mm 2 mps 765 mmHg 86%
    20:00 -1°C° 0.2 mm 2 mps 765 mmHg 88%
    21:00 -1°C° 0.2 mm 2 mps 765 mmHg 90%
    22:00 -1°C° 0.2 mm 2 mps 765 mmHg 91%
    23:00 -1°C° 0.2 mm 2 mps 765 mmHg 91%

    Day after tomorrow, 27 February, Tuesday

    Time Temperature Precipitation Wind Pressure Humidity
    00:00 +1°C° 0.2 mm 1 mps 764 mmHg 91%
    01:00 +1°C° 0.2 mm 1 mps 764 mmHg 91%
    02:00 +1°C° 0.2 mm 1 mps 764 mmHg 91%
    03:00 +1°C° 0.2 mm 1 mps 763 mmHg 91%
    04:00 +1°C° 0.1 mm 1 mps 763 mmHg 90%
    05:00 +1°C° 0.1 mm 1 mps 763 mmHg 89%
    06:00 +1°C° 0.1 mm 1 mps 762 mmHg 88%
    07:00 +2°C° 0 mm 1 mps 762 mmHg 84%
    08:00 +3°C° 0 mm 1 mps 762 mmHg 80%
    09:00 +4°C° 0 mm 1 mps 763 mmHg 76%
    10:00 +5°C° 0 mm 2 mps 763 mmHg 69%
    11:00 +6°C° 0 mm 2 mps 763 mmHg 62%
    12:00 +8°C° 0 mm 2 mps 763 mmHg 56%
    13:00 +8°C° 0 mm 3 mps 762 mmHg 54%
    14:00 +8°C° 0 mm 3 mps 762 mmHg 52%
    15:00 +8°C° 0 mm 3 mps 762 mmHg 51%
    16:00 +7°C° 0 mm 3 mps 762 mmHg 59%
    17:00 +4°C° 0 mm 3 mps 762 mmHg 68%
    18:00 +3°C° 0 mm 3 mps 763 mmHg 77%
    19:00 +2°C° 0 mm 3 mps 763 mmHg 81%
    20:00 +1°C° 0 mm 3 mps 764 mmHg 85%
    21:00 0°C° 0 mm 3 mps 765 mmHg 89%
    22:00 0°C° 0.1 mm 3 mps 765 mmHg 90%
    23:00 0°C° 0.1 mm 3 mps 764 mmHg 92%

    28 February, Wednesday

    Time Temperature Precipitation Wind Pressure Humidity
    00:00 0°C° 0.1 mm 3 mps 764 mmHg 93%
    01:00 0°C° 0.1 mm 3 mps 764 mmHg 93%
    02:00 0°C° 0.1 mm 3 mps 764 mmHg 94%
    03:00 +1°C° 0.1 mm 2 mps 764 mmHg 94%
    04:00 +1°C° 0.1 mm 2 mps 764 mmHg 94%
    05:00 0°C° 0.1 mm 3 mps 763 mmHg 94%
    06:00 0°C° 0.1 mm 3 mps 763 mmHg 94%
    07:00 0°C° 0.1 mm 3 mps 763 mmHg 92%
    08:00 +1°C° 0.1 mm 3 mps 763 mmHg 90%
    09:00 +1°C° 0.1 mm 3 mps 763 mmHg 88%
    10:00 +2°C° 0.2 mm 3 mps 762 mmHg 86%
    11:00 +2°C° 0.2 mm 3 mps 761 mmHg 84%
    12:00 +3°C° 0.2 mm 3 mps 760 mmHg 82%
    13:00 +3°C° 0.2 mm 3 mps 758 mmHg 82%
    14:00 +3°C° 0.2 mm 3 mps 757 mmHg 82%
    15:00 +3°C° 0.2 mm 3 mps 756 mmHg 82%
    16:00 +3°C° 0.3 mm 3 mps 755 mmHg 85%
    17:00 +2°C° 0.3 mm 3 mps 755 mmHg 88%
    18:00 +2°C° 0.3 mm 3 mps 754 mmHg 90%
    19:00 +2°C° 0.5 mm 3 mps 754 mmHg 91%
    20:00 +1°C° 0.5 mm 3 mps 754 mmHg 92%
    21:00 +1°C° 0.5 mm 3 mps 753 mmHg 93%
    22:00 +2°C° 0.7 mm 2 mps 752 mmHg 93%
    23:00 +2°C° 0.7 mm 2 mps 751 mmHg 93%

    1 March, Thursday

    Time Temperature Precipitation Wind Pressure Humidity
    00:00 +2°C° 0.7 mm 2 mps 750 mmHg 94%
    01:00 +2°C° 1.1 mm 2 mps 749 mmHg 93%
    02:00 +2°C° 1.1 mm 2 mps 748 mmHg 93%
    03:00 +2°C° 1.1 mm 2 mps 747 mmHg 93%
    04:00 +1°C° 0.1 mm 3 mps 747 mmHg 90%
    05:00 -1°C° 0.1 mm 5 mps 747 mmHg 86%
    06:00 -3°C° 0.1 mm 7 mps 747 mmHg 83%
    07:00 -4°C° 0 mm 8 mps 748 mmHg 78%
    08:00 -4°C° 0 mm 8 mps 749 mmHg 72%
    09:00 -4°C° 0 mm 9 mps 750 mmHg 67%
    10:00 -4°C° 0 mm 10 mps 750 mmHg 64%
    11:00 -4°C° 0 mm 10 mps 751 mmHg 61%
    12:00 -4°C° 0 mm 11 mps 752 mmHg 58%
    13:00 -4°C° 0 mm 11 mps 752 mmHg 57%
    14:00 -6°C° 0 mm 11 mps 753 mmHg 56%
    15:00 -6°C° 0 mm 11 mps 753 mmHg 54%
    16:00 -7°C° 0 mm 10 mps 754 mmHg 57%
    17:00 -8°C° 0 mm 9 mps 755 mmHg 59%
    18:00 -8°C° 0 mm 8 mps 756 mmHg 62%
    19:00 -9°C° 0 mm 7 mps 757 mmHg 65%
    20:00 -10°C° 0 mm 6 mps 758 mmHg 67%
    21:00 -11°C° 0 mm 6 mps 759 mmHg 70%
    22:00 -11°C° 0 mm 5 mps 760 mmHg 71%
    23:00 -11°C° 0 mm 5 mps 760 mmHg 72%

    2 March, Friday

    Time Temperature Precipitation Wind Pressure Humidity
    00:00 -11°C° 0 mm 4 mps 761 mmHg 72%
    01:00 -11°C° 0 mm 4 mps 761 mmHg 72%
    02:00 -11°C° 0 mm 4 mps 761 mmHg 71%
    03:00 -12°C° 0 mm 4 mps 761 mmHg 71%
    04:00 -12°C° 0 mm 3 mps 761 mmHg 69%
    05:00 -12°C° 0 mm 3 mps 762 mmHg 68%
    06:00 -12°C° 0 mm 3 mps 762 mmHg 66%
    07:00 -9°C° 0 mm 3 mps 762 mmHg 62%
    08:00 -8°C° 0 mm 3 mps 762 mmHg 57%
    09:00 -7°C° 0 mm 3 mps 763 mmHg 53%
    10:00 -4°C° 0 mm 3 mps 762 mmHg 52%
    11:00 -2°C° 0 mm 4 mps 762 mmHg 52%
    12:00 0°C° 0 mm 4 mps 762 mmHg 51%
    13:00 0°C° 0 mm 4 mps 761 mmHg 52%
    14:00 +1°C° 0 mm 5 mps 761 mmHg 52%
    15:00 +1°C° 0 mm 5 mps 760 mmHg 53%
    16:00 0°C° 0 mm 5 mps 761 mmHg 57%
    17:00 -1°C° 0 mm 5 mps 761 mmHg 62%
    18:00 -2°C° 0 mm 4 mps 761 mmHg 67%
    19:00 -3°C° 0 mm 4 mps 762 mmHg 70%
    20:00 -4°C° 0 mm 4 mps 762 mmHg 73%
    21:00 -6°C° 0 mm 3 mps 763 mmHg 76%
    22:00 -6°C° 0 mm 3 mps 763 mmHg 75%
    23:00 -6°C° 0 mm 3 mps 763 mmHg 75%
    Show more